Time,TemperatureF,DewpointF,PressureIn,WindDirection,WindDirectionDegrees,WindSpeedMPH,WindSpeedGustMPH,Humidity,HourlyPrecipIn,Conditions,Clouds,dailyrainin,SoftwareType,DateUTC
2016-02-11 00:11:00,25.9,17.0,29.68,East,96,3.0,9.0,69,0.00,,,0.00,weatherlink.com 1.10,2016-02-11 05:11:00,
2016-02-11 00:26:00,25.9,16.0,29.69,West,266,2.0,10.0,67,0.00,,,0.00,weatherlink.com 1.10,2016-02-11 05:26:00,
2016-02-11 00:41:00,25.7,16.0,29.69,WNW,297,3.0,10.0,66,0.00,,,0.00,weatherlink.com 1.10,2016-02-11 05:41:00,
2016-02-11 00:56:00,25.3,15.0,29.69,WSW,256,1.0,9.0,66,0.00,,,0.00,weatherlink.com 1.10,2016-02-11 05:56:00,
2016-02-11 01:11:00,25.1,15.0,29.69,WNW,286,3.0,9.0,65,0.00,,,0.00,weatherlink.com 1.10,2016-02-11 06:11:00,
2016-02-11 01:26:00,24.9,15.0,29.68,SW,219,3.0,9.0,65,0.00,,,0.00,weatherlink.com 1.10,2016-02-11 06:26:00,
2016-02-11 01:41:00,24.7,15.0,29.69,WNW,303,3.0,7.0,66,0.00,,,0.00,weatherlink.com 1.10,2016-02-11 06:41:00,
2016-02-11 01:56:00,24.4,15.0,29.69,WSW,242,2.0,6.0,67,0.00,,,0.00,weatherlink.com 1.10,2016-02-11 06:56:00,
2016-02-11 02:11:00,24.1,15.0,29.70,West,266,3.0,11.0,68,0.00,,,0.00,weatherlink.com 1.10,2016-02-11 07:11:00,
2016-02-11 02:26:00,23.8,15.0,29.70,WNW,291,3.0,10.0,69,0.00,,,0.00,weatherlink.com 1.10,2016-02-11 07:26:00,
2016-02-11 02:41:00,23.5,16.0,29.70,WSW,256,5.0,11.0,72,0.00,,,0.00,weatherlink.com 1.10,2016-02-11 07:41:00,
2016-02-11 02:56:00,23.2,16.0,29.70,WNW,291,3.0,9.0,73,0.00,,,0.00,weatherlink.com 1.10,2016-02-11 07:56:00,
2016-02-11 03:11:00,23.0,16.0,29.70,NNW,328,4.0,9.0,74,0.00,,,0.00,weatherlink.com 1.10,2016-02-11 08:11:00,
2016-02-11 03:26:00,22.7,16.0,29.70,West,266,3.0,6.0,76,0.00,,,0.00,weatherlink.com 1.10,2016-02-11 08:26:00,
2016-02-11 03:41:00,22.6,16.0,29.70,SW,225,1.0,10.0,76,0.00,,,0.00,weatherlink.com 1.10,2016-02-11 08:41:00,
2016-02-11 03:56:00,22.4,16.0,29.71,WNW,285,3.0,11.0,75,0.00,,,0.00,weatherlink.com 1.10,2016-02-11 08:56:00,
2016-02-11 04:12:00,21.7,16.0,29.71,NNW,340,1.0,14.0,79,0.00,,,0.00,weatherlink.com 1.10,2016-02-11 09:12:00,
2016-02-11 04:27:00,21.1,16.0,29.72,WNW,293,3.0,10.0,82,0.00,,,0.00,weatherlink.com 1.10,2016-02-11 09:27:00,
2016-02-11 04:42:00,20.8,16.0,29.72,West,277,2.0,15.0,83,0.00,,,0.00,weatherlink.com 1.10,2016-02-11 09:42:00,
2016-02-11 04:57:00,20.5,16.0,29.73,WSW,252,3.0,9.0,84,0.00,,,0.00,weatherlink.com 1.10,2016-02-11 09:57:00,
2016-02-11 05:12:00,20.2,16.0,29.73,WNW,284,2.0,11.0,85,0.00,,,0.00,weatherlink.com 1.10,2016-02-11 10:12:00,
2016-02-11 05:27:00,20.2,16.0,29.73,West,269,7.0,16.0,82,0.00,,,0.00,weatherlink.com 1.10,2016-02-11 10:27:00,
2016-02-11 05:42:00,19.9,14.0,29.74,NNW,328,3.0,12.0,78,0.00,,,0.00,weatherlink.com 1.10,2016-02-11 10:42:00,
2016-02-11 05:57:00,19.7,13.0,29.74,West,279,5.0,16.0,74,0.00,,,0.00,weatherlink.com 1.10,2016-02-11 10:57:00,
2016-02-11 06:13:00,19.6,12.0,29.75,West,280,3.0,13.0,73,0.00,,,0.00,weatherlink.com 1.10,2016-02-11 11:13:00,
2016-02-11 06:42:00,19.2,12.0,29.76,WNW,293,5.0,11.0,73,0.00,,,0.00,weatherlink.com 1.10,2016-02-11 11:42:00,
2016-02-11 06:57:00,18.9,12.0,29.76,WSW,248,4.0,9.0,74,0.00,,,0.00,weatherlink.com 1.10,2016-02-11 11:57:00,
2016-02-11 07:28:00,18.5,9.0,29.77,NNW,335,10.0,13.0,66,0.00,,,0.00,weatherlink.com 1.10,2016-02-11 12:28:00,
2016-02-11 07:42:00,18.5,8.0,29.77,NW,326,11.0,17.0,64,0.00,,,0.00,weatherlink.com 1.10,2016-02-11 12:42:00,
2016-02-11 07:57:00,18.4,7.0,29.78,NNW,342,8.0,8.0,62,0.00,,,0.00,weatherlink.com 1.10,2016-02-11 12:57:00,
2016-02-11 08:12:00,18.5,7.0,29.78,WNW,284,5.0,12.0,62,0.00,,,0.00,weatherlink.com 1.10,2016-02-11 13:12:00,
2016-02-11 08:27:00,18.5,7.0,29.78,West,280,7.0,14.0,62,0.00,,,0.00,weatherlink.com 1.10,2016-02-11 13:27:00,
2016-02-11 08:42:00,18.5,7.0,29.78,WNW,301,7.0,13.0,61,0.00,,,0.00,weatherlink.com 1.10,2016-02-11 13:42:00,
2016-02-11 08:57:00,18.6,7.0,29.79,WNW,289,5.0,9.0,60,0.00,,,0.00,weatherlink.com 1.10,2016-02-11 13:57:00,
2016-02-11 09:12:00,19.0,7.0,29.80,SW,215,8.0,12.0,59,0.00,,,0.00,weatherlink.com 1.10,2016-02-11 14:12:00,
2016-02-11 09:27:00,19.6,6.0,29.79,WSW,255,3.0,11.0,55,0.00,,,0.00,weatherlink.com 1.10,2016-02-11 14:27:00,
2016-02-11 09:42:00,20.1,7.0,29.79,WNW,297,6.0,12.0,56,0.00,,,0.00,weatherlink.com 1.10,2016-02-11 14:42:00,
2016-02-11 09:57:00,20.2,7.0,29.79,SW,236,5.0,10.0,56,0.00,,,0.00,weatherlink.com 1.10,2016-02-11 14:57:00,
2016-02-11 10:12:00,19.0,7.0,29.80,West,278,3.0,14.0,60,0.00,,,0.00,weatherlink.com 1.10,2016-02-11 15:12:00,
2016-02-11 10:27:00,20.1,8.0,29.81,WSW,257,3.0,13.0,60,0.00,,,0.00,weatherlink.com 1.10,2016-02-11 15:27:00,
2016-02-11 10:42:00,19.8,7.0,29.81,WNW,294,8.0,15.0,59,0.00,,,0.00,weatherlink.com 1.10,2016-02-11 15:42:00,
2016-02-11 10:57:00,20.6,9.0,29.81,NW,322,2.0,15.0,60,0.00,,,0.00,weatherlink.com 1.10,2016-02-11 15:57:00,
2016-02-11 11:12:00,20.2,9.0,29.82,NNW,338,9.0,12.0,63,0.00,,,0.00,weatherlink.com 1.10,2016-02-11 16:12:00,
2016-02-11 11:27:00,19.8,8.0,29.82,WNW,293,5.0,13.0,61,0.00,,,0.00,weatherlink.com 1.10,2016-02-11 16:27:00,
2016-02-11 11:58:00,19.2,5.0,29.83,SW,236,6.0,21.0,55,0.00,,,0.00,weatherlink.com 1.10,2016-02-11 16:58:00,
2016-02-11 12:13:00,19.2,5.0,29.83,WSW,252,1.0,16.0,53,0.00,,,0.00,weatherlink.com 1.10,2016-02-11 17:13:00,
2016-02-11 12:28:00,19.3,3.0,29.83,NW,304,11.0,16.0,49,0.00,,,0.00,weatherlink.com 1.10,2016-02-11 17:28:00,
2016-02-11 12:43:00,18.7,1.0,29.84,WNW,295,9.0,13.0,47,0.00,,,0.00,weatherlink.com 1.10,2016-02-11 17:43:00,
2016-02-11 12:58:00,19.5,1.0,29.84,WNW,294,5.0,16.0,44,0.00,,,0.00,weatherlink.com 1.10,2016-02-11 17:58:00,
2016-02-11 13:13:00,18.6,4.0,29.84,West,263,7.0,16.0,53,0.00,,,0.00,weatherlink.com 1.10,2016-02-11 18:13:00,
2016-02-11 13:28:00,17.7,1.0,29.84,West,280,5.0,16.0,49,0.00,,,0.00,weatherlink.com 1.10,2016-02-11 18:28:00,
2016-02-11 13:43:00,17.0,2.0,29.84,West,278,8.0,16.0,52,0.00,,,0.00,weatherlink.com 1.10,2016-02-11 18:43:00,
2016-02-11 13:58:00,16.7,3.0,29.86,NNW,329,6.0,16.0,55,0.00,,,0.00,weatherlink.com 1.10,2016-02-11 18:58:00,
2016-02-11 14:13:00,16.0,4.0,29.86,WNW,288,7.0,18.0,60,0.00,,,0.00,weatherlink.com 1.10,2016-02-11 19:13:00,
2016-02-11 14:28:00,15.0,6.0,29.87,West,278,10.0,19.0,68,0.00,,,0.00,weatherlink.com 1.10,2016-02-11 19:28:00,
2016-02-11 14:43:00,14.8,3.0,29.88,WSW,239,6.0,15.0,60,0.00,,,0.00,weatherlink.com 1.10,2016-02-11 19:43:00,
2016-02-11 14:58:00,15.0,3.0,29.89,NW,305,7.0,18.0,58,0.00,,,0.00,weatherlink.com 1.10,2016-02-11 19:58:00,
2016-02-11 15:13:00,14.9,0.0,29.89,SW,236,3.0,19.0,51,0.00,,,0.00,weatherlink.com 1.10,2016-02-11 20:13:00,
2016-02-11 15:28:00,15.3,-1.0,29.90,WNW,289,6.0,19.0,49,0.00,,,0.00,weatherlink.com 1.10,2016-02-11 20:28:00,
2016-02-11 15:43:00,14.6,3.0,29.91,SW,236,6.0,18.0,59,0.00,,,0.00,weatherlink.com 1.10,2016-02-11 20:43:00,
2016-02-11 16:13:00,12.9,1.0,29.93,WNW,288,10.0,17.0,59,0.00,,,0.00,weatherlink.com 1.10,2016-02-11 21:13:00,
2016-02-11 16:28:00,13.2,0.0,29.94,WSW,241,4.0,14.0,57,0.00,,,0.00,weatherlink.com 1.10,2016-02-11 21:28:00,
2016-02-11 16:44:00,12.9,2.0,29.95,WSW,238,5.0,14.0,61,0.00,,,0.00,weatherlink.com 1.10,2016-02-11 21:44:00,
2016-02-11 16:59:00,12.3,1.0,29.96,West,263,5.0,17.0,61,0.00,,,0.00,weatherlink.com 1.10,2016-02-11 21:59:00,
2016-02-11 17:14:00,11.8,1.0,29.96,West,269,3.0,9.0,61,0.00,,,0.00,weatherlink.com 1.10,2016-02-11 22:14:00,
2016-02-11 17:29:00,11.5,0.0,29.98,SSW,210,3.0,13.0,61,0.00,,,0.00,weatherlink.com 1.10,2016-02-11 22:29:00,
2016-02-11 17:44:00,11.2,1.0,29.99,WNW,287,5.0,18.0,63,0.00,,,0.00,weatherlink.com 1.10,2016-02-11 22:44:00,
2016-02-11 17:59:00,11.0,1.0,29.99,West,274,2.0,13.0,63,0.00,,,0.00,weatherlink.com 1.10,2016-02-11 22:59:00,
2016-02-11 18:14:00,10.9,0.0,30.00,West,276,5.0,14.0,61,0.00,,,0.00,weatherlink.com 1.10,2016-02-11 23:14:00,
2016-02-11 18:29:00,10.7,0.0,30.00,WSW,250,5.0,15.0,61,0.00,,,0.00,weatherlink.com 1.10,2016-02-11 23:29:00,
2016-02-11 18:44:00,10.6,0.0,30.02,NW,309,7.0,17.0,62,0.00,,,0.00,weatherlink.com 1.10,2016-02-11 23:44:00,
2016-02-11 18:59:00,10.3,0.0,30.02,WNW,288,5.0,14.0,63,0.00,,,0.00,weatherlink.com 1.10,2016-02-11 23:59:00,
2016-02-11 19:14:00,10.0,-1.0,30.03,NW,322,4.0,17.0,61,0.00,,,0.00,weatherlink.com 1.10,2016-02-12 00:14:00,
2016-02-11 19:29:00,9.7,-2.0,30.04,West,280,3.0,11.0,60,0.00,,,0.00,weatherlink.com 1.10,2016-02-12 00:29:00,
2016-02-11 19:44:00,9.4,-2.0,30.04,West,271,4.0,11.0,60,0.00,,,0.00,weatherlink.com 1.10,2016-02-12 00:44:00,
2016-02-11 19:59:00,9.2,-3.0,30.05,West,262,1.0,10.0,58,0.00,,,0.00,weatherlink.com 1.10,2016-02-12 00:59:00,
2016-02-11 20:15:00,8.9,-4.0,30.06,North,355,6.0,9.0,57,0.00,,,0.00,weatherlink.com 1.10,2016-02-12 01:15:00,
2016-02-11 20:30:00,8.6,-4.0,30.07,NNW,333,2.0,6.0,57,0.00,,,0.00,weatherlink.com 1.10,2016-02-12 01:30:00,
2016-02-11 21:00:00,7.4,-4.0,30.09,North,360,0.0,3.0,60,0.00,,,0.00,weatherlink.com 1.10,2016-02-12 02:00:00,
2016-02-11 21:15:00,5.9,-5.0,30.10,North,360,0.0,0.0,61,0.00,,,0.00,weatherlink.com 1.10,2016-02-12 02:15:00,
2016-02-11 21:30:00,5.2,-4.0,30.11,North,352,0.0,0.0,65,0.00,,,0.00,weatherlink.com 1.10,2016-02-12 02:30:00,
2016-02-11 21:45:00,3.3,-5.0,30.11,North,352,0.0,0.0,67,0.00,,,0.00,weatherlink.com 1.10,2016-02-12 02:45:00,
2016-02-11 22:00:00,2.6,-5.0,30.12,SSE,149,0.0,0.0,71,0.00,,,0.00,weatherlink.com 1.10,2016-02-12 03:00:00,
2016-02-11 22:15:00,2.5,-4.0,30.13,SE,132,0.0,0.0,73,0.00,,,0.00,weatherlink.com 1.10,2016-02-12 03:15:00,
2016-02-11 22:30:00,2.2,-4.0,30.13,SE,133,0.0,0.0,74,0.00,,,0.00,weatherlink.com 1.10,2016-02-12 03:30:00,
2016-02-11 22:45:00,1.9,-4.0,30.14,SE,133,0.0,0.0,75,0.00,,,0.00,weatherlink.com 1.10,2016-02-12 03:45:00,
2016-02-11 23:00:00,1.0,-5.0,30.14,SE,132,0.0,0.0,75,0.00,,,0.00,weatherlink.com 1.10,2016-02-12 04:00:00,
2016-02-11 23:31:00,0.3,-5.0,30.16,SE,134,0.0,0.0,80,0.00,,,0.00,weatherlink.com 1.10,2016-02-12 04:31:00,